Weather History for KCVX - February, 2013

Change the Weather History Date:

Wednesday, February 13, 2013

  Actual Average Record
Temperature  
Mean Temperature 32 °F -  
Max Temperature 36 °F 31 °F 41 °F (2011)
Min Temperature 28 °F 17 °F 3 °F (2007)
Degree Days  
Heating Degree Days 34    
Moisture  
Dew Point 27 °F    
Average Humidity 83    
Maximum Humidity 92    
Minimum Humidity 75    
Precipitation  
Precipitation 0.00 in - - ()
Sea Level Pressure  
Sea Level Pressure 29.72 in    
Wind  
Wind Speed 7 mph (SSW)    
Max Wind Speed 14 mph    
Max Gust Speed 18 mph    
Visibility 8 miles    
Events      
Averages and records for this station are not official NWS values.
T = Trace of Precipitation, MM = Missing Value Source: NWS Daily Summary

Daily Weather History Graph

Daily Weather History Graph

Search for Another Location

Airport or City:

Trip Planner

Search our weather history database for the weather conditions in past years. The results will help you decide how hot, cold, wet, or windy it might be!

Date:

Astronomy

Feb. 13, 2013 Rise Set
Actual Time 7:45 AM EST 6:06 PM EST
Civil Twilight 7:14 AM EST 6:36 PM EST
Nautical Twilight 6:40 AM EST 7:11 PM EST
Astronomical Twilight 6:05 AM EST 7:45 PM EST
Moon 9:01 AM EST (2/13) 10:22 PM EST (2/13)
Length of Visible Light 11h 21m
Length of Day
10h 20m
Waxing Crescent, 13% of the Moon is Illuminated
Feb 13
Waxing Crescent
Feb 17
First Quarter
Feb 25
Full
Mar 4
Last Quarter
Mar 11
New

Hourly Weather History & Observations

Time (EST) Temp. Windchill Dew Point Humidity Pressure Visibility Wind Dir Wind Speed Gust Speed Precip Events Conditions
12:14 AM 28.2 °F 21.0 °F 22.8 °F 80% 29.83 in 10.0 mi SW 6.9 mph - N/A   Overcast
12:34 AM 28.2 °F 21.0 °F 22.8 °F 80% 29.83 in 10.0 mi SW 6.9 mph - N/A   Overcast
12:55 AM 28.0 °F 21.7 °F 23.0 °F 81% 29.82 in 10.0 mi SSW 5.8 mph - N/A   Overcast
1:14 AM 28.2 °F 22.0 °F 23.4 °F 82% 29.82 in 10.0 mi SSW 5.8 mph - N/A   Overcast
1:35 AM 28.4 °F 21.2 °F 23.7 °F 83% 29.81 in 10.0 mi SSW 6.9 mph - N/A   Overcast
1:55 AM 28.8 °F 20.2 °F 23.9 °F 82% 29.80 in 10.0 mi SSW 9.2 mph - N/A   Overcast
2:14 AM 28.9 °F 20.4 °F 23.9 °F 81% 29.80 in 10.0 mi SSW 9.2 mph - N/A   Overcast
2:35 AM 28.8 °F 20.9 °F 24.3 °F 83% 29.80 in 10.0 mi SSW 8.1 mph - N/A   Overcast
2:55 AM 28.4 °F 20.4 °F 24.4 °F 85% 29.79 in 10.0 mi SSW 8.1 mph - N/A   Overcast
3:14 AM 28.6 °F 20.7 °F 24.6 °F 85% 29.78 in 10.0 mi South 8.1 mph - N/A   Overcast
3:35 AM 28.6 °F 21.5 °F 24.8 °F 86% 29.78 in 10.0 mi SSW 6.9 mph - N/A   Overcast
3:55 AM 29.1 °F 21.3 °F 24.8 °F 84% 29.77 in 10.0 mi SSW 8.1 mph - N/A   Overcast
4:14 AM 29.3 °F 20.8 °F 25.2 °F 85% 29.77 in 10.0 mi SSW 9.2 mph - N/A   Overcast
4:35 AM 29.3 °F 20.2 °F 25.2 °F 85% 29.76 in 10.0 mi SSW 10.4 mph - N/A   Overcast
4:55 AM 29.3 °F 20.8 °F 25.2 °F 85% 29.76 in 10.0 mi SSW 9.2 mph - N/A   Overcast
5:14 AM 29.7 °F 22.0 °F 25.3 °F 84% 29.75 in 10.0 mi SSW 8.1 mph - N/A   Overcast
5:35 AM 29.7 °F 22.8 °F 25.7 °F 85% 29.75 in 10.0 mi SSW 6.9 mph - N/A   Overcast
5:54 AM 30.0 °F 21.7 °F 25.7 °F 84% 29.74 in 10.0 mi SSW 9.2 mph - N/A   Overcast
6:15 AM 30.0 °F 22.4 °F 26.1 °F 85% 29.74 in 10.0 mi SSW 8.1 mph - N/A   Overcast
6:34 AM 30.2 °F 24.3 °F 26.4 °F 86% 29.73 in 10.0 mi SSW 5.8 mph - N/A   Overcast
6:55 AM 30.2 °F 21.9 °F 26.6 °F 86% 29.72 in 10.0 mi SSW 9.2 mph - N/A   Overcast
7:14 AM 30.2 °F 22.6 °F 26.2 °F 85% 29.72 in 10.0 mi SSW 8.1 mph - N/A   Overcast
7:34 AM 30.2 °F 21.9 °F 26.6 °F 86% 29.72 in 7.0 mi SSW 9.2 mph - N/A   Mostly Cloudy
7:54 AM 30.0 °F 22.4 °F 26.2 °F 86% 29.72 in 7.0 mi SSW 8.1 mph - N/A   Scattered Clouds
8:15 AM 30.0 °F 24.1 °F 26.6 °F 87% 29.72 in 7.0 mi SSW 5.8 mph - N/A   Mostly Cloudy
8:34 AM 30.6 °F 22.4 °F 27.3 °F 88% 29.72 in 7.0 mi SSW 9.2 mph - N/A   Overcast
8:54 AM 31.3 °F 23.9 °F 27.7 °F 87% 29.72 in 7.0 mi SSW 8.1 mph - N/A   Overcast
9:15 AM 31.8 °F 24.6 °F 28.0 °F 86% 29.72 in 7.0 mi SW 8.1 mph - N/A   Overcast
9:34 AM 32.0 °F 24.8 °F 28.0 °F 85% 29.71 in 7.0 mi SSW 8.1 mph - N/A   Overcast
9:55 AM 32.2 °F 23.2 °F 28.2 °F 85% 29.71 in 7.0 mi SW 11.5 mph - N/A   Overcast
10:15 AM 32.4 °F 24.6 °F 28.2 °F 85% 29.70 in 7.0 mi SW 9.2 mph 17.3 mph N/A   Overcast
10:34 AM 32.9 °F 24.7 °F 28.2 °F 83% 29.69 in 7.0 mi SSW 10.4 mph 16.1 mph N/A   Overcast
10:55 AM 32.7 °F 25.0 °F 28.2 °F 83% 29.69 in 7.0 mi SSW 9.2 mph 16.1 mph N/A   Scattered Clouds
11:15 AM 33.3 °F 24.6 °F 28.0 °F 81% 29.69 in 7.0 mi SW 11.5 mph 17.3 mph N/A   Clear
11:34 AM 33.4 °F 23.9 °F 28.0 °F 81% 29.69 in 7.0 mi SW 13.8 mph 18.4 mph N/A   Scattered Clouds
11:55 AM 33.8 °F 24.8 °F 28.2 °F 80% 29.69 in 7.0 mi SW 12.7 mph 18.4 mph N/A   Mostly Cloudy
12:15 PM 34.2 °F 25.7 °F 28.4 °F 79% 29.70 in 7.0 mi SW 11.5 mph 16.1 mph N/A   Overcast
12:34 PM 34.5 °F 27.3 °F 28.4 °F 78% 29.69 in 7.0 mi SW 9.2 mph 16.1 mph N/A   Mostly Cloudy
12:55 PM 34.7 °F 28.1 °F 28.4 °F 78% 29.69 in 7.0 mi SSW 8.1 mph - N/A   Overcast
1:14 PM 35.6 °F 29.2 °F 28.4 °F 75% 29.69 in 10.0 mi WSW 8.1 mph - N/A   Overcast
1:35 PM 34.5 °F 27.3 °F 28.8 °F 79% 29.69 in 7.0 mi SW 9.2 mph 16.1 mph N/A   Overcast
1:55 PM 34.7 °F 27.5 °F 28.8 °F 79% 29.68 in 7.0 mi WSW 9.2 mph 18.4 mph N/A   Overcast
2:14 PM 34.9 °F 26.6 °F 28.6 °F 78% 29.68 in 7.0 mi WSW 11.5 mph - N/A   Overcast
2:35 PM 35.2 °F 27.6 °F 28.4 °F 76% 29.68 in 7.0 mi SW 10.4 mph - N/A   Overcast
2:55 PM 35.6 °F 29.2 °F 28.4 °F 75% 29.68 in 10.0 mi SW 8.1 mph - N/A   Overcast
3:14 PM 35.8 °F 30.1 °F 28.4 °F 75% 29.68 in 10.0 mi SW 6.9 mph - N/A   Overcast
3:35 PM 35.8 °F 29.4 °F 28.9 °F 76% 29.67 in 10.0 mi SSW 8.1 mph - N/A   Overcast
3:54 PM 35.8 °F 29.4 °F 29.1 °F 77% 29.68 in 10.0 mi SW 8.1 mph - N/A   Overcast
4:14 PM 35.6 °F 29.9 °F 29.1 °F 77% 29.68 in 10.0 mi WSW 6.9 mph - N/A   Overcast
4:35 PM 35.6 °F 29.9 °F 29.1 °F 77% 29.68 in 10.0 mi WSW 6.9 mph - N/A   Overcast
4:54 PM 35.6 °F 30.7 °F 29.1 °F 77% 29.68 in 10.0 mi SSW 5.8 mph - N/A   Overcast
5:15 PM 35.6 °F - 29.1 °F 77% 29.68 in 10.0 mi Calm Calm - N/A   Overcast
5:35 PM 35.2 °F 29.5 °F 28.9 °F 78% 29.69 in 10.0 mi SW 6.9 mph - N/A   Overcast
5:54 PM 35.1 °F 31.0 °F 28.9 °F 78% 29.69 in 10.0 mi WSW 4.6 mph - N/A   Overcast
6:15 PM 34.5 °F - 28.4 °F 78% 29.69 in 10.0 mi Calm Calm - N/A   Overcast
6:35 PM 34.2 °F - 28.4 °F 79% 29.69 in 10.0 mi Calm Calm - N/A   Overcast
6:54 PM 32.2 °F - 28.2 °F 85% 29.69 in 10.0 mi Calm Calm - N/A   Overcast
7:15 PM 31.1 °F 27.7 °F 28.0 °F 88% 29.69 in 7.0 mi SSE 3.5 mph - N/A   Mostly Cloudy
7:35 PM 30.2 °F - 28.0 °F 92% 29.69 in 7.0 mi Calm Calm - N/A   Mostly Cloudy
7:54 PM 30.0 °F 26.5 °F 28.0 °F 92% 29.69 in 7.0 mi SSE 3.5 mph - N/A   Overcast
8:15 PM 30.4 °F - 27.9 °F 90% 29.69 in 7.0 mi Calm Calm - N/A   Overcast
8:34 PM 31.1 °F - 28.6 °F 90% 29.69 in 7.0 mi Calm Calm - N/A   Overcast
8:55 PM 32.9 °F - 28.4 °F 84% 29.69 in 7.0 mi Calm Calm - N/A   Overcast
9:14 PM 32.0 °F - 28.4 °F 87% 29.69 in 7.0 mi Calm Calm - N/A   Overcast
9:35 PM 33.3 °F - 28.4 °F 82% 29.69 in 10.0 mi Calm Calm - N/A   Overcast
9:55 PM 33.4 °F 29.1 °F 28.4 °F 82% 29.69 in 7.0 mi SSW 4.6 mph - N/A   Overcast
10:14 PM 33.3 °F - 28.4 °F 82% 29.69 in 7.0 mi Calm Calm - N/A   Overcast
10:35 PM 33.1 °F 30.0 °F 28.4 °F 83% 29.69 in 7.0 mi SSW 3.5 mph - N/A   Overcast
10:54 PM 33.1 °F 30.0 °F 28.8 °F 84% 29.69 in 7.0 mi SSW 3.5 mph - N/A   Overcast
11:15 PM 33.3 °F 28.9 °F 29.3 °F 85% 29.68 in 7.0 mi South 4.6 mph - N/A   Overcast
11:34 PM 33.3 °F 28.9 °F 29.3 °F 85% 29.68 in 7.0 mi South 4.6 mph - N/A   Overcast
11:55 PM 33.1 °F 28.7 °F 29.3 °F 86% 29.68 in 7.0 mi South 4.6 mph - N/A   Overcast